Flag for U.S.A. Weather past 2 weeks in Port Angeles, Washington, U.S.A.

Now
61 °F

Sunny.


Feels Like: 61 °F
Forecast: 49 / 62 °F
Wind: 7 mph from North

Location: William R. Fairchild International Airport

Current Time: Sep 4, 2015 at 2:43:03 PM

Latest Report: Sep 4, 2015 at 1:53 PM


Visibility: 10 mi

Pressure: 30.02 "Hg

Humidity: 56%

Dew point: 45 °F

Location of Port AngelesLocation

Historic Weather in Port Angeles — Graph

°F

Port Angeles temperature yesterday

Maximum temperature yesterday: 59 °F (at 3:53 PM)
Minimum temperature yesterday: 46 °F (at 2:53 AM)
Average temperature yesterday: 52 °F

Past Weeks' High & Low Weather Summary

 TemperatureHumidityPressure
High76 °F (Aug 22, 4:53 PM)97% (Aug 29, 6:53 AM)30.13 "Hg (Aug 29, 6:53 AM)
Low44 °F (Sep 4, 3:53 AM)34% (Aug 26, 2:53 PM)29.36 "Hg (Aug 29, 10:53 AM)
Average59 °F74%29.94 "Hg
* Reported Aug 20 12:53 PM — Sep 4 12:53 PM, Port Angeles, Weather by CustomWeather, © 2015

Note: Actual official high and low records may vary slightly from our data, if they occured in-between our weather recording intervals... More about our weather records

Advertising

Port Angeles weather history for previous 24 hours

 ConditionsComfort  
Time TempWeatherWind HumidityBarometerVisibility
12:53 PM
Fri, Sep 4
59 °FSunny.5 mph60%30.04 "Hg10 mi
11:53 AM57 °FScattered clouds.5 mph69%30.06 "Hg10 mi
10:53 AM56 °FPartly sunny.7 mph77%30.05 "Hg10 mi
9:53 AM53 °FOvercast.No wind86%30.05 "Hg10 mi
9:03 AM50 °FMostly cloudy.7 mph83%30.05 "Hg10 mi
8:53 AM49 °FMostly cloudy.7 mph86%30.05 "Hg10 mi
7:53 AM47 °FMostly cloudy.8 mph90%30.05 "Hg10 mi
7:00 AM46 °FPassing clouds.8 mph93%30.04 "Hg10 mi
5:53 AM47 °FMostly cloudy.3 mph90%30.03 "Hg10 mi
4:53 AM45 °FMostly cloudy.6 mph97%30.03 "Hg10 mi
3:53 AM44 °FFog.3 mph93%30.02 "Hg6 mi
2:53 AM45 °FPassing clouds.No wind97%30.02 "Hg8 mi
2:03 AM46 °FFog.3 mph93%30.02 "Hg3 mi
1:02 AM47 °FFog.6 mph97%30.03 "Hg2 mi
11:53 PM
Thu, Sep 3
47 °FClear.3 mph97%30.02 "Hg10 mi
10:53 PM49 °FMostly cloudy.7 mph93%30.02 "Hg10 mi
9:53 PM50 °FMostly cloudy.5 mph93%30.02 "Hg10 mi
8:53 PM51 °FMostly cloudy.No wind96%30.01 "Hg10 mi
7:53 PM53 °FLight rain. More clouds than sun.No wind89%30.01 "Hg9 mi
6:53 PM54 °FOvercast.No wind90%30.01 "Hg10 mi
5:59 PM54 °FRain. Fog.5 mph90%30.01 "Hg2 mi
4:53 PM54 °FLight rain. Overcast.7 mph74%30.01 "Hg7 mi
3:53 PM59 °FLight rain. More clouds than sun.3 mph60%29.99 "Hg10 mi
2:53 PM57 °FMostly cloudy.5 mph67%30.00 "Hg10 mi
Weather by CustomWeather, © 2015

See weather overviewHow to use our weather pages